Weather in Krasnoe

Belarus     52°28′17″N   30°55′19″E
temp.,
°C
wind,
m/s
gust,
m/s
humid.,
%
clouds,
%
prec.,
mm/h
press.,
hPa
HPBL,
m
20 may, fri
fri2000:00+9wnw36765 0.0 101997
03:00+9wnw348968 0.0 101972
06:00+10wnw4887100 0.1 1019234
09:00+11wsw2596100 0.4 1019189
12:00+12wsw2598100 1.1 1018253
15:00+14wsw2487100 2.0 1017474
18:00+16ese3477100 0.1 1014603
21:00+13ese4995100 0.1 1012270
21 may, sat
sat2100:00+12sse5109598 0.2 1010321
03:00+12sw269799 0.6 1007144
06:00+14w41098100 0.3 1006443
09:00+15wnw5890100 0.4 1006559
12:00+19w4570100 0.2 10051079
15:00+17wsw4580100 1.1 1003518
18:00+15ssw4119589 3.1 1001583
21:00+13w111792100 3.6 1000926
22 may, sun
sun2200:00+11w7148956 0.2 1001955
03:00+9w71384100 0.3 1000896
06:00+9w61191100 0.4 999910
09:00+9wnw5992100 0.6 999638
12:00+7nne61091100 0.4 1002802
15:00+11ne6117548 0.5 10041352
18:00+12nne586641 0.2 10061213
21:00+9nne368085 0.4 1008117
23 may, mon
mon2300:00+6n3485100 0.0 100966
03:00+5n238447 0.0 101042
06:00+5n227870 0.0 101134
09:00+11nw236291 0.0 1011462
12:00+13nw3455100 0.7 10111274
15:00+14n565394 0.8 10111656
18:00+13nnw565313 0.0 1011941
21:00+9n47710 0.0 1012131
24 may, tue
tue2400:00+6nnw23750 0.0 101435
03:00+5nw35685 0.0 101584
06:00+5nnw36824 0.0 1015129
09:00+12nnw34660 0.0 1016507
12:00+15n23495 0.0 10151496
15:00+17nw23455 0.0 10161831
18:00+17n23483 0.0 10161642
21:00+12ese22710 0.0 101818